sat.trackr.live / text

‹ back to catalog

ONEWEB-0092

NORAD 45437 · 2020-020P

PAYLOAD ACTIVE UNKNOWN

§ Identity

Operator
Country
UK
Launch date
2020-03-21
Launch site
TYMSC
Launch vehicle
Mass (kg)
RCS (m²)

Purposes: comms

External: N2YO · Heavens-Above · Gunter

§ Orbital elements

Epoch: 2026-05-25T02:51:36.821952Z

Period
109.76 min
Inclination
87.8916°
Eccentricity
0.0001986
Mean motion
13.11954068 rev/d
Perigee alt
1,214.1 km
Apogee alt
1,217.1 km
Semi-major
7,593.7 km
B*
1.4584e-3
RAAN
25.6517°
Arg perigee
89.2580°
Mean anomaly
270.8776°
Rev number
29,976

§ Raw data

ONEWEB-00921 45437U 20020P   26145.11917618  .00000534  00000+0  14584-2 0  99942 45437  87.8916  25.6517 0001986  89.2580 270.8776 13.11954068299764

JSON: /api/v1/satellites/45437 · /tle

For live sub-satellite position, see the globe view (requires WebGL).

§ Visibility from observer

Set your observer location to see the next 7 days of passes ≥ 10°. The values pass through the URL so the page stays shareable.

No JS? Fill the form by hand. The geolocation button needs JavaScript.